TimeEDT,TemperatureF,Dew PointF,Humidity,Sea Level PressureIn,VisibilityMPH,Wind Direction,Wind SpeedMPH,Gust SpeedMPH,PrecipitationIn,Events,Conditions,WindDirDegrees,DateUTC
12:32 AM,71.6,69.8,94,29.88,8.0,SSW,3.5,-,N/A,,Overcast,210,2013-08-27 04:32:00
5:54 AM,70.0,68.0,93,29.89,5.0,Calm,Calm,-,N/A,,Overcast,0,2013-08-27 09:54:00
6:22 AM,69.8,68.0,94,29.89,6.0,Calm,Calm,-,N/A,,Overcast,0,2013-08-27 10:22:00
6:54 AM,70.0,68.0,93,29.89,6.0,Calm,Calm,-,N/A,,Mostly Cloudy,0,2013-08-27 10:54:00
7:07 AM,69.8,68.0,94,29.90,7.0,Calm,Calm,-,N/A,,Mostly Cloudy,0,2013-08-27 11:07:00
7:54 AM,71.1,68.0,90,29.90,10.0,Calm,Calm,-,N/A,,Mostly Cloudy,0,2013-08-27 11:54:00
8:08 AM,71.6,68.0,88,29.90,10.0,Calm,Calm,-,N/A,,Overcast,0,2013-08-27 12:08:00
8:21 AM,71.6,68.0,88,29.91,10.0,WNW,3.5,-,N/A,,Overcast,290,2013-08-27 12:21:00
8:42 AM,71.6,69.8,94,29.91,9.0,NW,3.5,-,N/A,,Overcast,310,2013-08-27 12:42:00
8:54 AM,72.0,68.0,87,29.91,10.0,NW,5.8,-,N/A,,Overcast,310,2013-08-27 12:54:00
9:29 AM,71.6,68.0,88,29.92,10.0,NW,4.6,-,N/A,,Overcast,310,2013-08-27 13:29:00
9:45 AM,71.6,68.0,88,29.92,10.0,Calm,Calm,-,N/A,,Overcast,0,2013-08-27 13:45:00
9:54 AM,72.0,68.0,87,29.92,10.0,NW,3.5,-,N/A,,Overcast,320,2013-08-27 13:54:00
10:09 AM,73.4,69.8,88,29.92,10.0,NNE,4.6,-,N/A,,Overcast,30,2013-08-27 14:09:00
10:12 AM,73.4,69.8,88,29.92,10.0,NNE,3.5,-,N/A,,Overcast,30,2013-08-27 14:12:00
10:25 AM,73.4,68.0,83,29.92,10.0,NE,3.5,-,N/A,,Overcast,40,2013-08-27 14:25:00
10:37 AM,73.4,68.0,83,29.92,10.0,NNE,3.5,-,N/A,,Mostly Cloudy,30,2013-08-27 14:37:00
10:54 AM,75.0,68.0,79,29.91,10.0,East,3.5,-,N/A,,Mostly Cloudy,80,2013-08-27 14:54:00
11:01 AM,75.2,68.0,78,29.91,10.0,Calm,Calm,-,N/A,,Scattered Clouds,0,2013-08-27 15:01:00
11:54 AM,77.0,66.9,71,29.91,10.0,Variable,3.5,-,N/A,,Overcast,0,2013-08-27 15:54:00
12:50 PM,78.8,68.0,69,29.91,10.0,NW,3.5,-,N/A,,Overcast,320,2013-08-27 16:50:00
12:54 PM,78.1,68.0,71,29.90,10.0,Calm,Calm,-,N/A,,Overcast,0,2013-08-27 16:54:00
1:19 PM,78.8,66.2,65,29.90,10.0,Calm,Calm,-,N/A,,Overcast,0,2013-08-27 17:19:00
1:54 PM,78.1,68.0,71,29.90,10.0,North,4.6,-,N/A,,Mostly Cloudy,350,2013-08-27 17:54:00
2:54 PM,81.0,66.9,62,29.88,10.0,Variable,3.5,-,N/A,,Scattered Clouds,0,2013-08-27 18:54:00
3:54 PM,81.0,66.9,62,29.86,10.0,NNE,3.5,-,N/A,,Partly Cloudy,30,2013-08-27 19:54:00
4:54 PM,81.0,66.0,60,29.86,10.0,NNW,4.6,-,N/A,,Partly Cloudy,330,2013-08-27 20:54:00
5:54 PM,80.1,66.0,62,29.86,10.0,North,3.5,-,N/A,,Partly Cloudy,360,2013-08-27 21:54:00
6:54 PM,77.0,66.9,71,29.87,10.0,Variable,4.6,-,N/A,,Scattered Clouds,0,2013-08-27 22:54:00
7:54 PM,75.0,68.0,79,29.87,10.0,NNW,3.5,-,N/A,,Scattered Clouds,340,2013-08-27 23:54:00
8:20 PM,75.2,68.0,78,29.88,10.0,West,6.9,-,N/A,Thunderstorm,Overcast,270,2013-08-28 00:20:00
8:35 PM,75.2,66.2,73,29.89,10.0,West,4.6,-,N/A,,Overcast,280,2013-08-28 00:35:00
8:54 PM,73.9,68.0,82,29.89,10.0,WSW,3.5,-,0.00,Rain,Light Rain,250,2013-08-28 00:54:00
9:54 PM,73.0,68.0,84,29.89,10.0,Calm,Calm,-,0.00,,Mostly Cloudy,0,2013-08-28 01:54:00
10:54 PM,72.0,68.0,87,29.90,10.0,NNE,3.5,-,N/A,,Mostly Cloudy,30,2013-08-28 02:54:00
11:54 PM,71.1,68.0,90,29.90,10.0,Calm,Calm,-,N/A,,Overcast,0,2013-08-28 03:54:00